Theta_e
293 293 294 294 294 295 295 295 295 295 296 296 296 297 297 298 298 298 299 300 303 305 305 305 306 305 307 305 303 305 305 306 308 308 308 307 307 307 307 307 308 308 306 305 306 304 304 303 302 301 299 298 298 298 296 294 294 293 291 290 290 288 287 286 287 288 286 286 284 285 286 285 287 289 287 288 288 287 287 289 289 288 286 287 289
292 292 293 293 293 294 294 294 294 293 294 295 295 295 296 297 297 297 298 298 298 301 302 302 302 302 302 301 302 302 305 306 305 306 305 305 305 305 304 304 305 306 306 305 304 304 303 301 302 302 299 299 298 297 295 293 291 290 290 289 288 289 289 287 288 289 286 285 284 284 284 285 286 287 287 287 287 287 288 288 289 288 288 287 286
291 291 291 292 292 293 293 293 293 293 293 293 294 295 295 295 295 296 296 297 297 298 299 300 300 300 300 299 300 299 299 299 300 299 301 302 301 300 302 303 305 305 304 303 303 301 302 301 300 300 300 299 298 297 295 293 291 290 289 291 288 286 286 287 288 289 285 283 282 282 282 283 285 286 286 287 288 287 287 287 288 288 289 287 287
289 289 289 290 291 291 292 292 292 293 293 293 293 293 294 294 294 295 295 296 296 297 297 297 298 298 298 298 299 299 297 298 298 298 298 300 301 298 298 297 298 298 298 298 300 299 299 300 299 298 299 298 298 298 295 295 292 290 289 290 289 288 286 287 288 289 285 286 283 285 280 281 280 283 285 285 287 288 287 287 287 288 287 286 287
288 288 288 289 289 289 290 291 292 292 292 292 292 293 293 293 293 294 294 294 295 295 296 297 297 297 297 298 297 297 298 297 297 297 296 296 298 299 298 295 296 295 295 295 296 296 296 296 297 296 298 297 297 297 296 296 295 294 292 290 289 290 288 286 286 288 287 289 286 280 281 282 281 280 281 282 282 285 286 286 287 287 287 286 287
287 287 287 287 288 288 289 289 290 290 291 291 292 293 293 293 293 293 294 294 294 294 295 296 295 295 295 294 293 293 293 293 293 293 293 294 295 296 297 296 296 295 293 294 293 294 294 293 294 294 294 295 296 296 296 295 294 293 292 292 291 289 290 288 286 287 289 288 286 284 284 282 282 280 284 283 281 284 284 285 286 286 286 286 286
287 287 287 286 287 287 287 288 288 289 289 290 291 292 292 293 293 293 293 293 294 293 294 294 293 293 293 293 292 292 291 291 292 293 293 293 294 294 294 295 296 296 296 294 294 293 293 292 292 292 292 292 292 293 294 294 295 294 293 292 292 292 289 287 287 287 287 288 288 287 285 284 282 283 283 282 282 283 282 284 285 284 285 285 286
285 285 286 286 286 286 286 287 287 288 288 289 290 290 291 291 292 292 292 292 292 293 293 293 292 292 292 291 292 291 291 290 291 292 293 293 293 293 293 293 294 294 294 295 295 295 294 295 292 291 292 290 291 290 291 292 293 293 293 292 292 291 290 289 288 286 287 287 289 289 288 285 283 285 282 284 283 283 283 282 281 284 283 285 286
285 285 285 285 285 285 285 286 286 287 288 288 288 289 290 290 290 291 291 292 292 292 292 292 292 291 291 291 290 290 291 290 291 292 291 292 291 291 292 292 292 292 292 292 293 293 293 293 293 293 292 291 290 289 289 289 289 289 290 291 291 291 290 290 289 288 287 287 286 286 287 287 286 284 284 283 283 281 284 281 282 282 282 284 285
285 284 284 284 284 284 285 285 286 286 287 287 287 288 288 289 289 289 289 290 290 290 291 291 291 291 290 290 289 289 290 290 290 289 290 290 289 290 290 290 290 291 291 291 291 291 291 292 292 292 292 292 290 289 288 288 288 287 288 288 290 290 291 290 290 290 289 288 287 288 286 284 284 285 283 284 284 283 285 284 280 282 282 284 286
284 284 284 284 284 284 284 284 284 285 285 286 286 286 287 287 288 287 288 288 288 288 289 289 290 290 290 289 289 288 289 288 288 288 288 288 288 288 288 288 289 289 289 290 290 290 290 290 291 291 291 291 290 290 290 289 289 288 288 287 287 287 288 289 289 290 289 288 287 286 286 286 286 285 284 284 285 285 283 284 282 281 283 284 283
283 283 283 283 283 283 283 283 283 284 284 285 285 285 285 285 286 286 287 287 287 287 287 288 288 288 289 289 288 288 289 288 287 286 287 286 286 286 287 288 288 288 288 288 288 289 289 289 289 290 290 291 291 291 290 289 289 287 287 287 287 286 287 287 287 287 287 288 287 286 286 286 286 285 285 286 285 286 286 286 285 280 282 282 283
282 282 282 282 282 283 283 283 283 283 283 283 284 284 284 284 284 285 285 286 286 286 286 286 286 286 287 287 288 288 288 288 287 287 287 286 286 286 286 285 286 286 287 287 287 287 287 288 288 288 289 289 290 290 290 289 289 289 288 287 287 286 287 287 286 286 287 287 287 287 286 286 286 286 286 286 286 286 286 285 285 281 285 281 280
282 281 281 281 282 282 283 283 283 283 282 283 283 283 283 283 283 284 284 284 285 285 285 285 285 286 286 286 287 287 287 287 287 287 287 287 287 286 286 286 285 285 286 286 287 287 287 287 287 287 287 288 288 288 289 289 288 288 288 288 287 288 286 285 286 286 286 286 286 285 285 285 286 286 286 285 285 285 284 284 285 284 281 283 281
281 280 281 281 282 282 282 283 283 283 283 283 283 283 283 282 283 283 283 283 284 284 284 284 285 285 285 286 286 286 286 286 287 288 287 287 287 286 286 286 286 286 286 287 287 287 287 287 287 287 287 287 287 287 288 287 287 287 287 287 287 287 286 285 285 284 286 285 285 285 285 285 285 285 285 285 286 286 286 286 285 284 284 283 282
281 281 281 281 281 281 282 282 282 282 283 283 283 283 283 283 282 282 283 283 284 284 284 285 285 285 286 286 286 286 286 286 287 287 287 287 287 287 286 286 286 287 286 287 287 287 287 287 287 287 287 287 287 287 286 286 285 285 285 286 286 287 286 285 285 284 284 284 284 285 284 284 284 284 284 285 285 286 286 286 284 285 283 282 283
281 281 280 281 280 281 281 281 282 282 283 283 283 283 283 283 282 282 282 283 284 284 285 286 286 285 285 286 286 286 286 285 285 286 286 287 287 287 286 286 286 286 287 287 286 286 287 286 286 286 286 287 287 286 286 286 285 285 285 284 285 286 285 285 285 285 285 284 284 284 284 285 284 284 284 284 284 284 284 285 285 286 285 283 282
281 281 281 281 282 282 283 284 284 284 283 283 283 283 283 284 284 284 285 285 285 285 285 285 285 285 284 284 285 285 285 284 284 283 285 285 285 285 286 285 285 286 286 286 286 285 286 286 285 285 285 285 285 286 286 286 286 286 286 285 285 284 284 284 285 285 284 284 284 284 283 283 284 283 283 283 283 284 283 283 284 285 285 285 284
281 282 282 283 283 283 284 285 285 286 286 286 287 286 286 286 285 285 285 285 285 285 284 285 285 284 284 282 282 282 282 282 283 283 282 282 283 284 284 284 284 284 284 284 284 284 284 284 284 284 285 285 285 285 285 285 286 285 286 286 286 285 285 285 285 285 286 285 284 284 284 283 284 283 283 283 283 283 283 283 283 284 284 285 285
283 284 284 285 285 284 284 284 285 286 286 287 287 286 285 285 285 285 285 285 284 285 285 284 285 285 284 283 282 281 281 281 281 282 282 282 282 282 281 282 283 283 282 282 282 282 283 283 283 284 284 284 284 284 284 285 285 285 285 285 286 286 285 285 286 286 286 286 285 284 284 284 284 284 283 283 283 282 283 283 283 283 283 283 284
283 283 283 283 284 284 284 284 285 284 284 284 282 283 284 283 284 283 283 283 283 283 283 283 283 284 283 282 282 281 281 281 280 280 280 280 280 281 281 281 281 281 281 282 282 281 281 281 282 282 282 283 283 283 284 284 284 284 284 284 285 285 285 285 285 285 286 285 285 285 285 285 285 284 283 283 283 282 282 282 282 282 282 283 282
283 283 283 284 283 283 283 283 283 283 283 283 282 281 282 282 281 281 281 280 281 281 281 282 281 281 281 281 281 281 280 280 280 280 280 280 281 281 280 281 281 281 281 281 281 282 281 281 281 281 282 282 282 282 283 283 283 283 283 285 284 284 284 284 285 284 285 286 285 285 285 285 285 284 284 284 284 283 282 282 281 281 282 283 282
284 284 284 284 283 283 283 282 283 282 283 282 281 281 280 280 279 279 280 280 279 280 279 279 279 279 279 278 278 279 279 279 279 279 279 280 280 280 280 280 281 281 281 280 281 281 281 281 281 281 281 281 282 281 281 282 282 282 283 283 284 283 283 283 283 284 284 285 285 285 285 285 286 285 285 284 284 284 284 283 283 282 282 282 282
285 285 284 284 283 283 283 283 283 282 281 281 281 280 279 279 279 279 280 280 279 279 280 280 279 279 278 278 278 277 278 277 278 278 278 278 279 279 279 279 280 280 280 280 280 280 280 280 280 280 280 281 281 281 281 281 281 281 281 282 283 283 283 283 283 283 283 284 284 284 284 285 285 284 284 284 285 285 284 284 283 283 283 282 282
284 284 284 283 283 282 283 282 281 281 280 279 279 279 279 279 279 279 280 279 279 279 279 279 279 279 278 278 278 278 278 278 278 278 278 278 278 279 279 279 279 279 279 279 279 279 279 279 280 280 280 280 280 281 281 281 281 281 280 281 281 282 282 283 283 283 284 283 283 283 284 284 284 283 284 284 284 284 284 284 284 284 284 284 283
283 283 281 281 281 281 280 280 279 279 280 280 279 279 279 279 279 279 279 279 280 279 278 279 278 279 278 277 277 277 277 277 278 278 278 278 279 278 279 279 278 279 279 279 279 279 279 279 279 279 279 279 280 280 280 280 280 280 280 280 281 281 281 282 282 283 283 283 283 283 283 284 283 283 283 284 284 284 284 284 284 284 284 284 283
281 281 281 280 279 280 280 280 279 279 279 279 279 279 278 278 278 278 278 278 278 278 278 278 277 277 277 277 277 277 277 277 277 278 278 278 278 278 278 278 279 278 278 278 278 278 279 279 279 279 279 279 279 280 280 280 280 280 280 280 280 280 280 281 281 282 282 282 283 283 283 283 283 283 283 283 284 284 284 284 284 284 284 284 283
279 279 279 280 281 280 280 279 279 278 278 278 278 278 278 278 278 278 278 277 278 278 277 277 278 277 277 277 277 277 277 277 277 277 277 277 277 277 277 277 277 277 278 278 278 278 279 279 279 279 279 279 279 279 279 279 279 279 279 279 279 279 280 280 280 281 281 282 282 283 283 283 283 283 283 283 283 283 284 283 284 284 283 283 283
277 279 279 279 279 280 279 278 278 277 278 278 278 279 279 278 278 278 278 277 277 277 276 276 276 276 276 276 277 277 277 277 277 277 278 278 278 277 277 277 276 277 278 277 277 277 277 278 278 278 278 279 279 279 279 279 279 279 279 279 279 280 280 280 280 280 281 281 281 281 282 282 283 284 285 286 285 286 284 283 283 283 283 283 283
278 278 278 277 277 277 277 277 277 277 278 278 278 278 278 278 277 277 276 276 276 275 275 276 276 276 276 276 276 276 276 276 277 277 277 277 276 277 276 276 276 276 276 276 276 276 277 276 277 277 277 278 278 279 280 282 282 280 280 280 280 280 280 280 280 280 280 280 281 281 282 283 284 285 285 286 287 287 287 286 284 284 283 283 283
279 277 277 277 277 277 277 278 278 278 278 279 278 277 277 276 276 275 275 275 275 275 275 274 275 275 275 275 275 275 275 275 275 275 275 275 275 275 274 274 274 274 274 274 275 274 275 275 275 275 275 276 277 277 280 281 282 283 281 280 279 279 279 279 279 279 279 280 280 281 281 282 283 283 283 285 287 287 287 288 288 288 287 284 283
277 276 277 277 277 278 278 278 277 278 277 277 277 276 276 275 274 274 274 274 274 274 274 274 274 274 274 274 274 274 274 274 273 273 273 273 273 272 272 272 272 272 273 273 273 273 273 273 273 273 273 274 274 276 278 279 280 281 281 279 278 278 278 278 279 279 279 279 279 280 280 281 281 281 281 281 283 285 286 287 288 288 288 289 288
276 277 277 277 278 278 278 277 277 277 277 276 276 275 274 274 273 273 273 273 273 273 273 273 273 273 273 273 272 272 272 272 272 271 271 270 270 270 270 270 270 271 271 270 271 270 270 270 270 270 270 271 271 274 276 277 278 279 280 279 277 277 277 277 278 278 278 278 279 279 279 280 281 282 282 281 281 281 284 285 286 287 287 288 289
277 277 278 278 278 278 278 277 277 277 275 274 274 274 274 273 272 272 272 272 272 272 272 271 271 271 272 271 271 270 270 269 269 269 268 268 268 268 268 269 269 268 268 268 267 267 267 267 268 268 268 268 268 271 274 275 276 277 277 277 275 275 276 276 277 277 278 278 278 278 278 278 279 280 280 280 280 280 280 281 281 282 283 284 286
276 276 277 278 278 278 277 276 275 274 273 272 272 272 272 271 271 271 271 270 270 270 270 270 270 270 270 269 269 268 267 267 267 266 266 266 266 266 266 266 266 266 265 265 265 264 265 265 266 266 266 265 265 270 273 274 275 275 276 276 273 274 274 274 275 276 277 277 277 278 278 278 278 278 279 280 280 280 280 280 280 280 281 282 282
277 277 277 278 278 277 276 275 274 272 272 271 271 271 270 270 270 270 269 269 269 268 269 268 268 268 268 268 267 266 265 265 265 265 264 264 264 264 264 264 264 264 264 264 264 264 264 263 264 264 263 263 264 270 271 272 273 274 275 271 271 271 271 272 272 274 276 276 277 277 277 277 277 277 280 282 282 281 280 279 279 279 280 281 281
278 278 279 278 277 276 275 273 271 271 270 270 270 270 269 268 267 268 267 267 267 266 267 267 267 266 266 265 265 264 264 263 263 263 262 262 262 262 262 263 262 262 262 262 262 262 262 262 262 262 262 262 263 266 270 271 272 273 272 269 269 270 270 270 270 271 272 273 274 275 276 276 277 277 280 282 283 283 280 280 280 279 280 280 280
276 276 276 275 274 274 272 271 270 270 270 270 269 267 267 266 266 266 266 266 266 265 266 265 265 264 265 264 264 263 262 262 261 261 261 262 262 262 261 262 261 261 261 261 261 261 261 261 261 261 261 261 262 265 269 270 271 272 272 269 269 269 269 269 270 271 271 272 273 276 276 275 275 275 279 281 282 281 279 279 279 279 278 278 279
277 277 276 274 273 272 271 270 269 268 269 268 266 265 265 265 265 265 265 264 264 265 264 263 264 264 264 263 262 262 262 261 261 261 260 260 260 260 261 261 261 260 260 260 260 260 260 260 261 261 263 262 261 264 268 269 270 271 270 268 268 268 268 268 269 269 271 272 272 273 275 275 275 276 279 281 281 280 278 278 278 278 278 278 279
275 274 275 273 272 270 269 268 267 268 267 266 265 264 263 264 264 264 263 262 264 264 263 263 263 263 263 262 262 261 260 260 260 260 260 260 260 260 260 260 260 260 259 259 259 259 259 259 260 260 261 261 261 262 264 269 270 271 272 269 268 267 267 267 268 268 268 269 270 271 273 276 277 278 279 279 280 280 278 278 279 278 278 278 280
274 273 274 272 271 270 269 267 267 267 265 265 264 263 263 263 263 262 261 263 263 263 262 262 262 262 261 261 260 260 259 259 259 259 260 260 260 260 260 259 259 259 258 258 258 258 258 259 260 260 260 261 261 261 263 268 270 271 271 271 267 267 267 267 267 268 268 268 269 270 271 274 276 277 278 279 280 281 280 278 277 276 278 280 282
273 273 271 269 268 267 267 266 266 265 264 263 262 261 262 262 261 261 261 263 262 262 262 260 260 260 260 259 259 259 259 259 259 259 258 258 259 259 259 258 258 258 257 257 258 258 258 258 259 260 260 260 262 264 262 266 269 270 271 272 268 268 268 268 267 268 268 268 268 268 268 271 274 275 276 277 278 279 279 277 278 281 282 282 279
270 269 269 269 267 266 266 265 265 263 264 264 260 260 260 260 260 261 262 262 261 261 260 260 259 259 258 258 258 258 258 258 258 258 258 258 258 258 258 258 257 257 257 256 257 257 257 257 258 259 259 260 261 261 266 265 269 270 271 272 272 271 273 270 268 267 267 268 269 269 269 272 274 274 275 276 277 278 277 276 279 280 280 281 281
269 269 268 266 266 265 265 263 263 262 262 262 260 259 259 259 260 261 260 260 259 258 258 258 257 258 257 257 257 257 257 257 258 258 257 257 257 257 257 257 257 257 257 256 257 257 257 256 256 257 258 259 260 261 264 267 267 270 271 272 273 273 273 270 269 268 269 269 268 268 269 273 274 275 276 277 277 277 275 278 278 279 279 279 278
268 267 266 264 264 263 263 262 263 261 261 259 259 258 258 257 260 260 258 258 258 257 256 256 256 256 256 257 257 257 257 257 257 257 257 257 257 257 256 257 257 257 256 256 256 256 256 256 256 256 257 259 260 260 261 264 268 270 271 272 272 273 273 273 269 269 269 269 271 274 275 275 276 276 276 276 275 275 276 276 277 277 277 275 275
266 264 263 262 261 260 259 259 261 261 261 260 259 258 256 258 259 259 258 257 256 255 255 256 256 256 256 256 256 256 256 257 257 257 257 257 257 257 257 257 257 256 256 256 255 256 256 256 257 258 258 259 260 261 261 262 264 266 268 270 271 272 272 273 272 271 273 274 275 275 275 275 274 273 271 270 270 271 275 276 276 276 273 274 274
265 264 262 260 258 259 258 259 258 260 259 259 257 257 258 258 257 259 258 256 253 255 255 255 255 256 256 256 256 256 257 257 257 257 257 257 258 257 257 257 256 256 256 256 256 256 257 258 258 259 260 261 262 262 263 263 264 263 264 265 266 267 270 271 269 267 269 268 269 270 269 272 273 275 275 275 274 274 272 272 271 272 272 272 273
264 263 260 259 258 259 258 257 258 259 258 258 257 256 256 256 256 257 255 253 254 255 255 255 255 255 256 256 256 258 258 257 257 257 257 257 257 257 257 256 257 257 257 257 258 258 259 259 259 261 262 263 263 264 264 265 265 266 266 267 266 266 265 265 265 266 267 267 268 270 271 269 269 269 269 269 269 269 270 271 271 272 272 273 274
262 260 258 259 258 257 257 256 257 258 257 256 255 255 255 256 257 255 254 252 254 255 255 254 255 255 255 257 256 256 257 257 257 257 257 257 257 257 258 258 260 261 260 260 260 261 263 264 264 264 263 263 264 264 265 270 270 272 270 269 268 268 268 268 270 273 270 269 269 269 268 269 269 268 268 268 268 268 269 270 270 270 271 272 272
261 259 258 257 257 256 256 256 257 257 256 255 255 255 255 257 255 254 254 253 254 255 254 254 255 255 256 256 256 256 256 257 257 256 257 257 261 264 264 262 261 265 268 269 269 265 266 266 266 266 266 265 265 267 272 274 274 274 274 274 274 274 275 273 274 275 273 269 269 268 268 268 267 267 266 266 267 267 267 268 269 271 271 271 272
259 258 256 256 256 256 255 255 256 256 255 254 255 255 255 256 256 256 255 254 254 254 255 255 256 255 257 257 257 256 257 256 257 257 257 257 257 258 264 266 266 266 268 269 270 270 271 271 268 266 268 272 272 273 273 273 274 274 274 274 274 274 275 275 275 271 270 269 268 267 267 267 267 266 266 266 267 267 268 268 269 270 271 271 272
Wind_Speed
5 6 8 9 10 9 9 9 9 13 14 14 14 14 13 11 13 13 10 11 9 9 8 7 7 5 6 6 5 5 5 5 6 6 5 4 4 3 2 3 2 2 1 1 1 1 1 1 1 2 3 5 5 7 7 8 6 6 5 3 6 5 4 2 3 4 4 1 2 2 4 3 3 2 5 6 6 5 4 7 6 4 4 5 6
6 9 10 10 10 11 10 10 12 15 13 13 13 12 12 13 13 11 11 11 11 8 6 7 5 3 5 4 6 6 7 7 7 6 5 5 5 4 2 1 1 1 2 1 1 1 1 1 2 3 3 5 4 1 2 2 3 4 3 3 2 6 6 4 4 6 1 5 3 3 4 6 5 4 5 7 6 5 7 7 5 6 7 6 4
8 8 8 9 9 10 9 10 10 10 10 12 11 13 13 11 11 10 11 11 10 10 9 6 5 6 6 4 4 4 4 4 5 3 4 6 6 5 5 4 4 4 3 2 1 0 0 1 2 1 2 2 3 3 3 4 5 5 5 6 4 1 3 1 5 7 5 2 1 2 4 2 4 5 7 7 6 7 6 6 6 6 8 6 6
10 9 9 9 9 10 11 12 11 11 12 12 12 11 10 10 10 11 11 10 10 10 9 6 5 5 6 7 8 8 5 6 8 9 10 8 7 4 5 4 4 4 4 3 3 3 1 1 0 1 2 2 3 4 4 5 4 4 4 6 4 4 3 5 6 7 4 6 3 7 3 1 6 8 9 5 7 9 8 8 5 7 6 5 5
8 8 9 10 12 12 11 10 10 12 12 12 11 10 8 10 10 10 10 10 9 10 10 8 9 9 7 8 8 9 10 11 11 11 10 7 7 9 7 4 4 4 4 4 3 3 3 2 1 1 0 1 2 3 4 6 5 5 5 5 5 7 7 4 4 6 8 7 5 2 1 2 6 5 1 6 3 6 9 8 7 7 7 7 7
6 7 7 7 8 9 10 11 12 11 11 9 8 9 10 10 11 11 10 10 10 10 9 9 9 9 10 10 9 8 9 9 9 7 8 9 7 5 9 9 7 5 4 4 4 3 3 3 2 1 1 1 1 3 3 2 3 4 6 7 7 6 7 6 5 4 9 9 5 3 3 3 2 2 1 7 1 6 4 5 7 7 5 7 7
6 7 7 9 8 9 10 11 9 10 9 6 8 9 11 10 10 11 10 9 9 10 10 9 10 9 9 8 7 7 7 6 4 5 7 7 8 11 9 10 9 10 9 7 6 5 4 3 2 1 1 1 1 1 3 4 4 4 3 3 6 6 4 6 7 7 3 6 7 9 6 2 1 1 4 2 7 1 3 6 7 5 5 6 8
4 6 6 6 7 8 9 8 8 8 5 6 8 9 11 10 10 11 10 10 10 9 11 9 9 7 8 8 8 8 7 6 7 6 7 7 10 10 9 9 10 10 11 10 10 10 9 8 5 3 2 1 0 2 3 4 3 3 3 3 4 4 5 7 7 6 7 5 7 12 11 6 3 1 2 2 4 7 5 1 3 5 5 7 8
4 5 6 6 7 8 6 8 6 7 8 8 8 8 8 9 10 11 12 11 10 11 11 11 10 8 7 7 9 6 7 6 5 7 8 8 11 10 10 9 10 10 10 10 10 11 10 8 8 7 6 4 1 2 2 2 3 4 4 4 5 5 5 6 6 7 6 8 4 6 7 10 8 6 2 1 4 4 9 4 5 1 3 7 9
4 5 5 6 5 6 5 5 8 8 7 6 7 7 8 8 11 13 12 10 9 11 11 12 10 8 10 10 10 9 8 7 8 9 8 7 9 9 8 9 8 9 9 10 11 11 10 10 9 8 7 6 4 2 3 3 3 3 4 4 4 5 5 5 7 7 7 6 7 5 5 4 5 7 6 6 5 6 12 9 4 6 7 8 10
4 4 4 5 4 5 5 9 6 7 6 8 9 9 8 10 10 13 10 9 10 11 11 11 10 9 9 10 10 10 9 9 10 10 9 10 9 8 8 7 7 7 8 9 9 10 9 9 8 8 7 6 7 6 4 4 4 3 4 3 4 5 6 6 6 6 7 6 6 6 8 8 9 7 7 7 8 9 7 8 6 6 8 8 5
3 3 4 4 5 6 6 9 8 7 9 10 9 8 9 8 9 12 12 11 11 10 11 11 9 10 9 10 11 10 10 10 11 10 9 9 8 8 7 8 8 7 8 8 9 9 8 8 8 8 9 8 8 7 6 5 5 3 3 3 4 4 4 5 5 6 6 7 7 6 7 7 7 8 6 7 7 8 7 12 9 3 5 7 6
3 3 3 4 5 6 8 6 7 10 9 8 8 7 7 9 10 13 12 10 10 9 11 10 11 10 10 10 9 9 10 10 10 10 8 8 7 8 9 9 8 10 9 9 9 9 7 8 8 7 7 7 7 7 6 6 6 5 4 4 4 4 6 5 5 6 7 7 8 7 7 7 8 6 6 7 6 6 7 10 7 3 11 6 3
2 3 4 4 5 5 4 6 7 6 6 7 6 7 7 8 9 11 9 8 7 9 9 10 10 9 9 9 9 8 9 9 9 9 8 7 7 8 8 7 7 7 7 8 7 8 7 6 5 6 6 7 7 7 6 6 5 6 5 6 5 5 4 4 5 6 6 7 6 7 7 7 8 6 7 6 7 7 9 9 9 6 5 8 3
2 4 4 4 4 4 4 4 4 4 4 5 5 6 6 7 8 8 8 7 7 7 7 8 7 7 7 8 8 7 8 8 8 7 7 8 7 8 8 7 7 7 7 6 7 8 8 9 8 7 7 6 6 7 7 6 6 6 5 5 5 5 5 4 5 5 7 7 7 7 8 7 7 7 6 7 7 9 9 9 7 12 11 8 8
2 3 4 3 3 3 4 4 4 4 4 4 5 5 7 6 6 6 6 5 5 6 6 6 7 7 8 9 8 7 6 6 6 6 6 6 6 6 7 6 6 6 7 8 8 8 8 9 9 9 8 7 6 6 6 6 6 6 6 6 7 4 5 6 6 5 6 7 7 7 6 8 7 7 7 7 7 8 8 7 7 9 11 15 9
2 3 3 3 3 3 4 4 4 4 4 5 5 5 6 5 5 5 4 4 5 5 5 5 5 7 7 7 7 7 7 7 6 5 5 5 5 5 5 5 5 5 5 6 7 8 8 8 8 8 9 8 8 7 6 6 5 5 5 6 6 6 5 6 6 6 7 6 6 7 7 7 7 6 6 6 7 7 7 7 8 10 9 11 12
3 2 2 3 2 3 3 3 3 3 4 4 5 4 4 4 4 5 5 6 5 4 4 4 5 5 5 5 5 5 5 4 4 4 4 5 5 4 4 5 5 5 5 5 5 6 6 7 7 8 8 7 7 7 7 7 6 6 5 5 5 4 5 5 5 5 7 6 7 7 6 7 7 6 7 7 7 8 8 7 7 8 8 12 12
3 3 3 3 3 3 3 3 2 3 3 3 3 3 4 4 4 4 5 3 3 3 3 4 4 4 4 4 4 5 4 4 3 3 4 4 5 5 5 5 5 5 6 6 6 6 6 6 5 6 7 7 7 7 7 7 7 7 7 7 6 4 5 6 6 4 6 5 7 8 8 8 7 7 7 7 7 7 7 7 7 6 8 11 12
4 5 4 4 3 3 3 3 3 2 1 1 1 2 4 4 5 5 5 5 6 6 5 6 5 4 5 4 4 4 4 4 5 6 7 6 6 5 5 5 5 6 5 5 6 6 7 7 7 6 7 6 7 7 7 6 6 6 6 7 8 7 6 7 7 5 4 5 7 8 9 8 8 7 7 7 7 7 7 7 7 7 9 9 9
6 5 5 5 4 3 2 2 1 0 0 0 2 2 1 2 2 2 2 3 3 4 4 4 5 5 5 5 4 4 4 4 5 4 4 4 5 5 5 5 5 6 4 6 6 6 5 6 6 7 7 7 7 8 6 6 6 7 7 6 7 8 7 8 6 8 6 5 6 8 9 9 8 8 8 8 7 7 6 7 7 7 8 7 8
6 5 5 5 4 3 2 2 1 0 0 1 0 0 0 1 1 0 0 1 1 2 1 2 2 2 2 3 4 4 3 4 4 5 5 6 6 7 6 6 7 7 6 8 8 7 6 6 7 8 8 7 7 7 8 6 7 7 7 6 7 7 8 8 7 8 8 7 6 7 9 9 8 9 9 8 8 8 7 7 7 7 8 9 7
7 6 5 6 5 4 4 4 3 3 3 2 2 2 3 3 3 3 3 3 4 3 2 1 1 2 2 3 3 3 3 3 4 4 5 6 6 6 6 6 7 8 7 6 7 8 9 9 9 9 9 9 9 8 7 7 8 8 9 9 7 8 8 9 9 8 8 8 9 9 9 8 7 8 9 8 8 8 8 8 9 7 9 9 8
6 6 4 5 5 4 3 3 4 4 4 4 4 4 4 4 4 3 4 5 4 4 3 2 2 3 2 2 3 3 3 3 3 3 4 5 5 5 5 5 6 6 8 7 6 7 7 8 9 10 10 10 11 10 10 9 9 8 9 10 10 9 9 9 10 10 9 8 8 10 10 9 8 9 10 9 8 8 8 8 9 8 8 9 8
6 6 6 4 4 4 5 5 4 5 4 4 4 4 4 4 4 4 5 5 4 4 3 4 2 2 3 3 4 4 4 4 4 4 5 5 5 6 5 6 7 8 7 6 7 5 6 7 8 10 11 11 11 11 11 12 11 9 10 10 11 10 10 10 10 10 10 9 9 10 11 9 8 9 10 9 9 10 9 9 10 9 9 9 7
6 6 5 6 6 5 5 5 4 4 6 5 5 4 4 4 4 4 4 4 5 3 3 3 1 1 3 3 4 4 5 5 5 5 6 6 6 6 6 6 5 7 8 7 8 8 7 9 9 8 8 9 10 11 12 12 12 11 11 11 11 11 12 12 11 11 10 9 10 11 11 9 9 10 11 10 9 11 10 10 11 10 9 8 9
7 7 6 5 4 6 7 6 6 5 6 5 3 2 2 3 4 4 4 4 5 4 4 2 2 1 2 3 3 4 4 4 5 6 5 5 6 6 7 7 7 7 8 8 7 8 8 8 10 10 10 11 11 10 10 11 11 10 10 12 13 13 12 11 12 12 12 11 11 11 12 11 11 11 12 12 11 11 10 11 11 11 9 9 10
5 5 6 8 9 7 7 7 5 3 2 3 2 0 1 1 2 1 1 2 2 2 2 1 1 1 2 4 4 4 4 4 4 4 4 4 5 5 6 6 6 7 8 8 9 10 10 9 10 10 11 10 10 11 11 11 10 10 11 11 11 12 13 13 13 13 12 12 13 13 12 12 13 12 12 12 11 11 10 11 10 9 9 10 11
6 7 7 8 8 7 4 0 0 0 1 1 1 1 1 3 5 5 5 5 3 4 4 4 4 5 4 4 4 4 4 5 6 7 7 8 7 7 6 6 5 6 7 7 8 9 11 12 11 10 11 10 10 11 9 9 10 12 12 13 13 14 14 14 14 14 14 13 12 12 13 13 14 16 20 18 16 14 10 11 11 10 10 11 10
8 8 7 5 4 3 4 4 3 4 4 3 2 3 4 5 4 4 4 4 3 4 4 4 5 4 5 5 6 5 6 6 8 9 8 8 8 8 8 8 9 9 9 9 10 10 10 11 12 12 11 10 10 9 11 19 20 14 13 12 12 13 13 13 15 15 15 15 15 14 13 19 20 21 21 22 22 22 21 17 14 11 10 11 10
6 4 4 4 5 6 7 7 6 5 4 4 3 4 4 4 3 4 4 3 4 4 4 4 5 4 5 5 5 6 7 8 7 8 8 9 9 9 10 10 10 10 11 11 10 11 11 10 11 11 12 11 11 11 23 25 25 28 19 14 14 14 14 15 14 15 16 16 15 15 14 16 18 17 17 21 22 24 23 24 25 24 19 14 11
5 5 6 6 6 6 6 6 5 4 4 4 4 3 4 4 3 4 3 3 4 4 4 4 4 5 5 7 7 7 8 7 7 8 8 8 9 10 11 11 12 12 12 11 12 11 12 11 10 11 12 12 12 19 26 26 27 28 25 18 15 15 14 14 14 15 14 14 15 15 13 13 13 14 14 14 17 21 23 25 26 25 25 25 23
6 7 6 7 7 7 7 6 5 5 5 3 4 4 4 3 3 2 3 4 4 4 5 5 5 5 6 5 6 7 7 7 6 6 8 9 10 11 11 11 12 12 12 12 12 13 12 11 11 13 12 13 13 20 24 26 26 26 27 23 14 14 14 13 14 14 14 15 14 14 12 12 11 18 17 15 15 15 17 24 25 26 26 25 22
7 8 8 7 5 5 5 6 5 5 5 4 4 4 3 3 2 2 3 3 4 4 4 5 4 5 5 5 5 5 5 6 6 8 8 9 9 10 9 9 10 11 11 12 13 13 14 13 13 13 13 14 15 19 25 27 27 27 27 24 15 14 15 15 16 15 15 13 14 14 13 13 11 13 13 15 16 16 15 14 14 14 14 18 22
8 6 5 7 7 6 5 5 5 5 4 4 4 3 2 2 2 2 2 3 3 4 4 4 4 4 4 4 6 5 6 7 7 8 8 9 9 10 10 9 9 10 10 12 11 12 11 11 11 12 12 16 15 24 25 26 25 25 26 23 16 14 12 14 15 16 15 15 15 15 15 16 15 13 13 15 17 17 16 16 15 14 14 15 15
7 8 8 8 9 10 8 7 4 5 4 3 3 2 3 2 2 3 3 3 3 3 4 3 3 3 4 5 6 6 6 7 8 8 8 10 9 9 10 9 10 10 9 9 10 10 11 13 11 11 12 15 15 23 24 25 25 25 27 16 14 15 14 14 15 15 13 14 14 15 15 17 17 18 20 31 28 20 17 17 18 18 16 15 15
8 9 10 7 6 6 7 7 5 4 4 3 3 3 3 2 3 3 3 3 3 4 4 3 3 3 4 4 5 5 6 7 7 9 10 10 10 11 9 7 10 10 10 9 10 9 10 10 13 11 12 14 15 19 24 26 25 27 21 13 14 12 13 13 14 15 18 17 16 15 16 14 15 15 22 29 30 28 19 19 18 18 17 15 16
4 2 4 5 4 6 5 7 7 5 4 3 3 3 3 3 2 3 3 4 3 4 3 2 3 3 4 5 5 5 7 8 7 9 10 10 9 9 9 7 9 11 11 9 9 10 8 9 11 13 11 15 15 18 25 25 26 26 22 16 13 13 15 15 13 12 13 13 16 27 24 17 17 18 26 31 31 26 20 19 18 18 18 17 17
7 10 10 7 6 7 7 6 6 6 3 3 3 2 2 2 1 2 2 3 3 3 2 3 4 4 5 5 5 5 6 8 9 9 9 11 10 10 9 8 8 9 11 9 10 10 9 8 9 12 18 19 15 17 23 24 26 25 20 14 14 14 15 15 15 17 15 14 15 16 25 24 23 24 33 31 31 26 20 19 19 18 19 19 18
4 3 6 8 7 8 5 5 5 5 3 3 2 1 0 1 2 2 3 3 3 1 2 3 4 5 5 5 5 6 7 7 10 10 9 10 9 9 9 9 9 8 10 9 9 9 12 10 9 11 11 12 14 13 16 26 24 25 24 16 12 13 13 15 14 14 15 14 16 16 18 24 28 29 30 32 32 33 23 18 17 17 18 21 16
8 7 7 7 5 6 7 6 5 4 3 2 1 0 0 1 2 2 3 3 2 2 4 4 5 5 5 6 6 6 9 9 8 10 10 9 8 9 10 10 10 9 8 10 10 10 11 11 9 9 10 11 11 14 14 24 25 25 26 22 12 13 13 13 13 14 13 14 12 12 13 19 25 27 28 29 29 28 27 21 19 18 18 19 20
3 6 7 6 5 6 6 4 3 4 3 2 1 1 1 1 1 4 3 2 2 3 4 4 5 6 6 7 7 7 7 8 8 8 10 11 9 9 9 10 9 9 11 11 10 10 9 10 9 10 10 11 12 20 16 20 25 25 25 27 17 13 15 14 15 13 14 13 15 15 14 19 27 28 29 30 32 31 33 21 19 28 34 36 27
7 5 4 7 6 6 5 5 3 3 2 1 1 1 1 1 3 4 2 2 3 4 4 4 5 7 7 8 7 8 9 7 8 8 10 12 10 9 9 8 10 11 10 11 9 10 9 10 9 8 8 10 11 12 21 19 23 26 26 26 27 23 27 19 14 14 13 15 13 13 14 24 27 28 28 29 30 33 30 23 32 32 31 33 28
3 5 7 5 6 5 5 3 3 2 1 1 1 0 1 2 5 2 2 3 3 4 4 5 6 7 7 7 7 8 8 7 8 9 9 10 11 10 9 8 9 9 9 10 9 8 9 9 10 10 9 10 11 11 15 23 22 26 26 27 27 28 27 17 15 13 12 12 13 13 16 28 29 29 31 30 29 28 22 32 33 35 34 30 19
10 8 5 4 7 6 5 2 2 1 1 1 1 0 2 4 3 1 3 4 4 4 5 6 7 7 7 7 7 7 8 8 8 8 9 10 11 9 10 8 8 9 9 10 10 8 9 10 10 10 10 10 10 11 11 16 24 25 26 27 27 28 27 27 19 13 14 14 20 31 32 30 30 30 31 30 25 25 29 29 31 30 29 15 13
6 5 5 5 5 4 4 2 1 2 1 1 0 0 3 4 3 3 4 4 4 5 5 7 7 7 7 7 8 8 7 8 8 7 8 8 10 10 9 10 9 9 9 10 10 9 9 10 11 11 11 11 11 10 11 10 12 17 19 25 29 28 28 27 26 20 27 32 31 31 33 32 29 25 19 13 12 14 24 29 30 29 16 12 12
9 8 7 5 5 3 2 1 1 1 1 0 1 2 3 4 4 4 4 4 5 5 7 6 7 7 7 6 7 7 8 7 6 7 7 8 8 8 9 9 9 10 10 10 11 10 10 10 11 11 12 11 10 9 9 9 10 10 11 14 15 16 23 26 19 15 19 18 21 22 19 24 23 29 29 27 25 25 19 16 12 11 11 13 13
5 7 5 5 3 2 1 1 1 2 1 1 2 4 4 4 4 4 4 4 4 5 6 7 8 7 7 6 7 8 9 8 7 7 8 9 8 7 8 9 10 10 10 11 11 11 11 13 9 10 11 10 10 10 10 11 12 11 11 10 10 10 10 10 12 13 14 15 15 18 21 17 15 14 14 11 11 11 12 12 10 11 11 13 16
7 5 4 4 3 2 2 2 2 1 1 1 4 4 4 4 4 4 4 4 6 5 6 7 7 6 7 6 6 7 7 8 8 8 7 8 10 9 9 10 11 9 9 11 10 11 10 11 10 11 10 9 10 11 10 15 17 22 19 15 11 10 10 10 13 22 16 11 10 10 9 10 10 11 11 10 10 9 11 11 13 11 11 11 12
5 5 4 3 3 2 1 1 2 1 1 2 4 4 4 4 4 4 4 4 6 6 5 6 6 6 7 6 6 7 7 7 8 9 9 9 12 20 16 12 11 19 27 27 23 15 13 11 10 10 9 11 11 12 24 30 28 28 29 30 28 27 26 21 24 30 20 11 9 9 9 10 10 9 10 10 10 9 10 11 10 14 14 12 11
5 4 3 3 2 1 1 1 2 1 2 3 4 4 4 4 4 4 4 5 5 6 6 6 6 6 7 8 7 7 7 7 7 8 8 10 11 13 20 23 21 22 24 26 25 27 27 25 17 12 13 24 26 28 28 28 29 29 29 29 29 27 28 29 28 18 11 8 9 9 10 10 11 10 10 12 11 11 10 11 11 9 11 13 13
Wind_Direction
8 23 27 24 23 21 22 28 27 38 33 33 37 34 33 30 36 34 21 27 34 35 35 35 34 27 40 45 52 21 28 44 50 40 53 64 81 82 76 63 59 50 49 78 153 154 190 120 139 161 160 174 181 199 194 197 197 193 184 176 184 203 244 157 160 132 135 259 349 317 300 280 272 271 252 246 240 237 231 220 222 208 216 207 214
32 35 27 29 26 24 28 31 28 37 26 33 38 36 34 32 37 32 25 29 30 26 34 46 29 55 87 73 78 39 39 39 32 24 32 45 39 36 46 68 95 110 113 114 99 136 162 152 187 196 176 201 210 198 180 189 172 173 152 192 214 195 223 180 180 127 232 208 200 290 307 289 262 264 254 245 232 235 226 224 218 211 216 214 210
41 39 33 31 28 31 38 35 35 35 34 36 34 38 33 34 34 36 33 32 27 23 28 28 23 20 42 30 47 71 50 59 74 54 40 49 40 34 37 29 22 18 29 36 45 79 126 164 222 160 202 197 192 207 185 197 195 192 181 191 212 256 246 197 185 199 193 117 113 50 277 280 306 266 253 239 221 224 226 228 220 219 220 208 201
47 34 31 25 28 34 36 35 30 32 30 29 29 34 36 34 33 36 36 35 31 24 28 21 38 47 48 53 46 62 42 14 27 24 18 21 21 34 45 35 38 36 24 28 22 23 32 339 23 164 211 186 216 220 202 216 201 197 198 217 175 213 225 240 193 208 149 133 264 214 237 160 306 257 237 241 199 218 215 226 218 223 221 220 204
48 41 34 30 32 30 32 35 36 36 30 27 23 27 36 36 34 38 40 39 35 29 29 28 33 33 28 40 43 36 28 27 25 12 9 7 7 10 353 15 46 46 37 39 36 20 22 24 11 2 303 229 212 236 227 224 216 216 207 203 196 203 229 232 229 205 221 224 175 88 344 287 235 260 9 280 205 213 228 223 222 220 217 214 213
51 45 40 36 41 35 32 35 39 37 33 22 20 27 31 33 36 37 39 37 35 31 32 43 45 47 43 43 38 39 40 28 25 9 6 15 356 338 -0 6 4 21 33 32 41 37 18 29 29 3 331 324 218 254 286 303 258 232 216 212 217 226 223 215 244 235 225 235 235 217 145 184 254 277 51 280 321 241 254 227 226 225 218 215 222
44 47 35 42 35 41 34 34 33 37 22 14 29 31 34 37 37 39 39 35 31 36 36 45 52 52 60 66 65 59 60 29 13 21 25 13 28 24 13 14 15 6 355 5 6 12 16 19 36 39 350 297 301 279 271 254 254 245 248 224 230 229 223 235 224 235 245 254 250 253 259 188 149 43 267 335 314 317 250 231 240 233 229 229 229
53 51 45 38 43 49 45 26 28 31 19 25 32 30 34 34 40 40 41 38 31 30 41 39 55 51 62 66 63 61 59 43 23 19 25 23 33 23 21 19 20 23 18 10 7 1 354 350 8 14 1 317 166 224 252 271 289 286 252 249 255 245 226 234 243 226 215 238 217 243 254 251 194 182 174 244 265 295 303 318 281 244 240 240 236
38 53 49 39 36 38 43 43 24 28 27 35 34 30 32 35 41 46 43 38 31 32 39 39 44 42 50 56 65 55 61 52 41 39 35 23 37 21 23 17 18 21 25 23 20 14 8 357 347 343 345 346 45 294 289 301 278 278 283 265 241 240 224 232 238 242 226 241 246 251 243 250 255 243 227 165 254 292 277 244 268 300 236 249 244
38 45 48 47 36 38 34 47 40 29 25 34 38 39 36 38 42 46 41 37 32 36 40 42 39 38 47 43 53 46 40 42 46 41 36 28 39 28 23 21 12 16 14 19 18 12 11 7 1 350 341 336 348 302 296 306 294 279 269 263 263 259 251 237 235 246 241 246 229 247 241 263 266 275 258 256 256 206 256 272 235 234 247 244 232
37 41 39 44 28 39 36 53 43 33 28 37 38 38 37 38 39 47 40 39 36 39 42 43 41 39 45 46 49 46 39 43 44 38 30 33 34 28 26 19 23 20 14 14 19 10 6 9 8 357 348 343 333 337 323 306 298 291 287 287 273 257 261 255 254 255 257 256 248 234 240 225 237 234 240 236 239 257 272 267 264 229 235 269 257
43 43 42 34 41 37 41 46 39 34 36 35 33 33 39 39 40 49 37 33 34 35 42 43 43 42 43 44 47 44 43 44 46 41 30 34 29 28 18 28 21 19 22 18 15 7 6 3 5 9 7 360 351 339 330 325 316 317 302 290 281 270 273 270 260 259 254 254 254 244 244 237 241 239 234 225 229 248 244 266 269 291 282 237 268
52 50 46 43 50 41 40 36 38 37 37 32 34 36 39 44 42 51 39 29 33 35 44 42 43 41 40 42 44 42 45 45 44 44 31 33 26 27 25 26 15 20 11 12 7 4 4 9 7 8 3 2 355 356 340 336 335 328 317 309 290 283 270 264 264 255 249 251 253 250 246 245 245 241 235 239 241 240 240 264 258 200 262 281 282
56 61 61 52 43 42 43 44 43 41 39 39 38 42 40 44 41 51 41 29 30 41 41 44 41 40 40 45 44 43 44 44 42 40 30 32 27 29 29 24 22 21 8 11 351 354 5 7 6 7 6 2 4 357 353 343 340 334 325 319 310 294 291 275 266 269 268 262 264 268 261 248 249 238 237 231 237 241 250 245 268 260 223 266 277
55 62 59 51 37 37 43 44 47 45 44 47 48 48 52 51 48 50 45 29 35 40 43 49 45 41 43 44 46 43 43 41 41 37 34 29 24 28 25 20 21 9 12 353 358 4 1 1 4 7 5 3 2 359 353 348 344 340 333 318 311 304 302 291 277 273 275 274 269 258 263 262 256 248 241 240 228 232 241 243 237 269 272 251 264
66 82 69 52 45 36 38 37 31 31 34 43 51 51 55 50 50 49 49 35 36 40 43 48 48 48 47 47 45 47 44 45 42 35 32 31 26 28 21 17 13 7 3 2 359 4 1 360 358 358 355 358 359 357 353 349 341 341 329 330 321 313 316 308 292 286 276 272 270 273 273 266 257 252 245 245 238 235 235 241 228 243 258 275 260
134 111 107 83 55 42 44 41 29 26 28 35 42 51 60 57 57 55 47 47 40 38 42 39 45 51 49 52 48 48 47 45 41 34 29 23 28 22 20 4 358 6 358 1 355 356 357 357 353 351 351 350 349 351 348 345 342 335 328 321 315 312 319 305 301 295 283 279 277 268 263 271 268 257 250 249 249 249 240 237 223 234 238 254 268
163 144 118 108 102 78 58 51 49 47 34 31 35 45 77 82 68 60 50 43 30 35 37 39 37 45 42 43 47 50 48 41 34 26 17 22 19 20 7 8 5 350 353 344 348 346 346 350 346 343 343 343 343 339 343 339 341 334 323 310 293 303 303 298 292 288 287 286 281 283 272 269 266 266 254 243 245 245 247 238 235 237 229 244 255
170 160 131 106 94 96 99 84 71 61 39 19 11 26 40 43 48 58 51 43 36 34 30 32 41 34 34 31 32 29 29 31 25 20 21 24 14 9 5 354 346 352 350 349 347 343 341 340 341 333 334 334 333 334 334 334 337 332 330 322 315 316 309 300 290 288 284 287 285 284 283 275 269 266 262 253 244 246 246 243 245 234 238 240 252
182 169 158 145 132 139 128 122 93 76 59 355 9 32 38 29 37 28 24 18 15 17 14 17 8 21 8 13 11 19 16 17 4 9 3 3 353 353 349 352 345 342 340 339 341 339 337 336 333 327 321 321 321 321 325 323 326 320 317 322 316 322 314 303 301 291 279 280 281 280 277 276 275 271 269 261 254 240 239 245 241 239 244 239 246
181 169 163 158 162 199 213 213 228 291 298 291 67 90 25 15 43 33 26 356 4 348 3 353 1 354 6 354 344 355 347 356 353 360 354 337 336 333 334 328 327 333 332 332 333 330 326 326 323 323 319 315 313 311 312 312 314 310 310 306 307 310 309 303 301 300 290 272 269 273 275 272 271 270 267 266 264 251 241 240 239 242 248 241 235
172 172 162 164 186 200 228 268 291 316 331 101 340 0 35 208 222 297 322 293 281 300 301 298 324 340 332 327 326 325 334 344 354 339 342 334 330 331 324 334 332 319 334 327 328 325 321 320 322 319 319 313 308 305 306 306 301 301 299 299 302 301 297 294 294 293 295 293 277 273 276 277 268 263 266 265 260 262 250 246 239 230 242 246 224
177 174 166 168 185 193 202 200 199 210 227 243 260 231 231 238 240 226 200 246 210 238 250 234 290 332 323 323 325 324 339 336 348 326 331 324 321 320 320 323 315 314 319 318 315 319 318 321 318 314 313 312 309 309 307 306 303 302 298 295 290 290 290 289 288 280 280 285 290 282 276 275 275 272 267 260 259 257 253 249 250 230 241 243 233
180 174 172 178 181 190 189 211 224 225 229 233 230 238 242 241 237 226 213 239 251 244 257 288 314 317 311 338 325 323 341 321 323 297 311 304 311 307 305 306 295 302 304 303 309 305 304 304 304 304 306 307 309 308 308 305 300 299 298 295 292 286 282 279 278 280 279 276 273 281 281 275 274 274 273 269 261 256 253 252 252 246 240 246 234
177 175 185 186 192 200 212 216 216 224 228 235 234 233 230 236 236 229 235 237 240 249 239 253 241 293 310 339 319 325 331 316 305 302 295 297 301 303 306 306 309 306 299 299 298 294 292 293 292 297 302 303 302 303 302 301 300 297 295 295 294 291 286 281 277 275 274 273 273 268 272 275 272 271 272 269 264 260 255 253 253 250 245 243 238
179 187 181 196 206 212 219 225 227 223 215 217 227 229 232 237 245 224 227 251 242 229 219 231 275 312 312 328 317 332 317 307 302 302 298 300 303 302 300 298 295 293 295 297 298 303 298 295 291 284 281 282 288 293 295 296 297 300 298 295 293 291 291 290 287 281 273 268 270 270 268 264 263 263 265 265 263 262 260 256 255 254 248 245 245
190 191 199 204 216 223 220 219 218 215 213 218 229 265 293 305 296 317 332 344 348 354 350 8 3 7 329 319 313 306 296 296 295 289 294 299 298 299 301 298 298 295 294 295 293 291 292 287 289 291 289 288 288 283 281 281 284 287 290 292 294 292 287 286 285 286 285 281 272 268 268 265 260 256 259 259 260 262 260 257 254 256 250 249 249
192 192 192 200 209 214 216 218 220 249 2 8 17 175 238 238 287 343 63 80 11 48 71 88 93 26 9 348 339 317 307 301 295 293 292 292 294 296 294 292 298 297 295 294 296 297 296 295 291 290 288 287 286 286 285 285 286 288 287 284 284 286 288 287 284 280 278 277 278 275 270 264 259 257 257 258 253 255 256 260 257 253 251 248 249
186 195 194 199 205 209 213 225 14 100 148 108 78 90 80 59 52 43 48 37 28 49 33 26 19 11 351 329 326 327 326 331 329 333 336 333 330 324 318 314 307 299 296 293 294 295 298 297 296 292 292 290 286 283 285 287 291 292 289 288 288 286 286 286 285 286 284 279 273 269 267 267 261 258 257 257 256 251 251 259 255 250 249 250 249
193 199 201 209 211 198 182 167 147 141 156 158 105 64 57 64 50 41 42 11 30 30 29 12 9 351 341 338 335 333 337 339 342 339 334 328 325 325 324 322 316 311 307 304 301 300 298 299 300 299 295 294 291 290 287 292 295 294 293 291 289 288 287 286 286 286 283 281 279 275 269 264 264 264 262 260 260 260 255 250 255 251 244 247 245
209 203 189 172 158 152 148 147 155 144 127 108 95 80 77 64 50 39 28 4 24 16 17 10 349 345 336 335 338 341 345 344 337 331 326 329 328 326 323 318 314 311 309 308 307 305 302 299 300 301 301 299 297 298 300 301 302 301 300 299 296 293 289 286 283 280 280 280 279 278 277 277 274 269 265 263 260 259 260 260 256 252 247 243 246
203 167 150 154 148 146 141 143 149 145 129 122 113 106 77 59 40 30 6 4 21 16 4 355 346 342 345 348 345 341 339 332 333 327 329 329 327 324 322 319 316 315 314 311 308 306 306 309 308 307 302 299 297 298 301 304 303 301 299 298 296 291 287 282 281 280 279 277 276 276 276 277 274 272 270 268 265 262 260 259 260 260 255 248 242
169 168 178 172 171 168 158 151 155 154 128 121 126 107 92 83 44 0 12 17 12 8 355 350 348 345 339 341 340 334 329 329 330 333 328 326 323 318 315 317 314 314 316 313 312 315 310 313 313 308 304 303 301 304 307 307 304 302 300 297 292 288 284 280 277 275 275 276 277 275 272 268 270 271 271 270 270 268 262 261 259 261 261 257 250
177 178 178 183 169 168 166 159 149 127 116 115 98 105 112 95 70 15 33 16 2 353 353 334 338 336 333 334 334 338 333 330 331 327 323 317 315 309 310 312 310 312 311 309 309 309 309 311 312 311 307 306 303 311 311 309 307 305 301 298 289 284 281 279 277 273 271 270 269 273 275 273 267 267 267 269 269 268 268 265 261 258 257 258 257
179 186 186 179 175 169 160 144 134 131 130 116 88 94 106 85 60 43 25 10 357 345 335 326 329 328 334 342 350 341 329 323 322 317 314 310 308 309 310 311 310 307 310 307 309 309 307 309 310 311 310 305 304 309 310 308 308 307 303 301 292 287 284 280 277 274 272 271 269 268 267 266 268 267 267 270 272 270 270 270 267 260 254 253 252
188 180 191 180 184 175 167 154 137 120 107 102 103 92 78 57 37 30 8 354 338 331 319 319 317 331 355 352 343 326 321 318 314 312 310 307 307 303 306 309 303 298 294 294 295 298 301 305 308 307 303 299 301 307 309 308 309 307 304 300 293 289 286 283 281 280 274 270 266 264 265 267 265 265 264 269 270 273 271 268 266 265 263 256 251
197 192 191 186 166 150 141 129 126 118 116 101 88 71 68 47 20 358 357 323 326 315 308 312 324 355 348 336 327 316 311 309 309 308 304 303 304 304 300 301 295 294 295 296 295 295 300 300 301 299 297 296 299 306 306 307 306 304 304 296 290 282 277 277 278 282 284 285 288 291 291 293 290 286 282 279 277 277 275 270 264 260 259 261 262
185 116 122 133 130 114 121 127 123 106 96 91 79 74 62 34 355 333 326 315 309 296 301 336 342 332 324 319 315 310 304 304 302 297 298 297 297 293 292 297 292 298 295 292 294 294 289 290 292 294 295 297 297 302 304 304 304 301 300 297 294 288 284 282 278 269 270 271 271 275 275 270 270 271 275 275 275 274 270 268 268 267 266 264 264
175 161 156 150 143 135 130 118 117 108 97 90 87 74 56 2 320 304 299 297 293 289 336 336 318 316 311 308 303 300 296 297 295 293 293 294 294 293 292 292 284 285 287 292 293 291 289 285 283 285 295 296 293 297 301 302 301 300 300 294 293 292 291 292 295 294 293 292 290 288 285 283 283 282 280 278 274 271 269 272 273 272 269 265 260
152 137 142 138 134 123 117 120 121 130 128 117 98 104 134 264 297 296 294 282 283 317 328 317 308 305 302 297 295 294 290 289 291 291 288 285 288 291 290 290 287 283 287 290 288 287 289 288 286 286 286 288 290 292 297 300 300 299 299 296 290 288 287 289 288 290 293 288 288 289 288 287 283 281 279 278 276 274 275 275 270 264 259 258 258
161 148 138 136 143 141 146 144 136 142 140 142 136 118 4 294 288 292 274 276 308 335 316 306 304 298 294 291 289 287 289 286 280 286 289 287 286 286 290 289 290 289 281 286 286 286 286 288 287 282 283 285 284 290 293 298 299 299 298 297 288 285 287 288 288 285 284 287 290 292 297 298 298 296 293 292 288 280 272 265 263 267 268 273 276
107 137 137 131 124 118 117 121 136 143 143 137 122 74 313 283 292 277 278 318 329 309 304 299 296 293 291 289 287 285 279 283 287 286 288 287 284 280 282 287 286 287 287 286 287 288 286 287 284 286 283 283 284 289 291 293 296 297 296 295 293 285 285 284 283 280 285 289 292 291 292 291 291 290 291 291 291 293 293 290 276 268 264 263 264
151 147 160 140 138 145 152 154 154 147 138 144 103 54 307 288 279 280 311 317 294 296 293 290 289 288 287 287 287 286 287 285 285 283 283 288 290 290 286 283 285 286 285 287 288 288 289 289 287 281 277 278 279 279 286 288 291 294 296 295 292 291 290 290 288 287 285 284 283 283 284 287 287 288 287 285 284 283 285 284 285 286 287 283 276
150 148 155 142 138 145 145 156 150 143 142 131 117 50 294 289 278 291 303 300 300 290 290 289 285 282 285 285 284 283 279 279 281 284 283 285 290 289 287 285 285 286 292 293 290 289 287 286 289 288 282 279 277 275 277 282 286 289 294 294 294 294 293 289 286 282 286 285 286 279 276 280 281 282 285 288 289 288 281 277 277 282 284 283 281
167 163 153 142 150 158 151 172 179 160 167 132 116 70 292 280 276 305 292 294 292 293 291 286 283 283 283 282 282 279 282 279 278 279 286 289 288 290 293 289 286 290 291 291 288 284 283 284 284 282 280 277 272 269 268 272 279 286 291 293 293 292 293 293 291 285 277 276 280 285 288 290 292 293 292 292 292 291 289 287 284 282 284 283 284
137 139 147 137 127 132 145 163 233 181 162 137 144 241 281 268 291 295 290 286 288 291 288 282 283 283 281 285 288 286 278 275 276 272 270 277 283 292 290 293 292 289 290 288 286 284 277 280 280 278 276 275 271 268 269 266 264 269 272 277 281 284 287 289 288 288 288 289 290 290 290 291 291 288 285 275 263 269 277 281 281 278 276 279 279
170 162 140 134 137 138 155 169 205 225 158 214 274 265 252 276 283 286 287 287 286 283 283 284 284 285 285 283 283 290 293 288 284 282 277 279 283 280 284 288 289 291 288 283 282 281 281 277 279 282 281 277 276 274 275 271 266 261 256 259 265 267 269 272 274 271 272 274 273 274 274 275 277 281 284 287 287 287 287 283 275 267 263 265 269
146 141 138 131 129 146 162 187 222 220 180 240 269 272 270 273 276 280 281 287 285 279 281 284 287 287 287 285 284 283 288 296 292 290 293 292 282 278 281 285 289 288 287 284 282 281 279 280 265 276 282 284 287 287 286 286 282 273 267 262 249 246 249 239 256 261 258 260 263 269 272 273 275 274 273 264 259 260 264 267 263 266 269 269 270
143 148 140 148 148 154 177 178 228 217 219 260 269 275 275 275 277 284 289 293 283 280 281 285 285 288 287 288 285 288 292 293 296 289 276 278 289 290 282 274 270 266 263 269 264 274 273 280 282 286 288 284 289 290 282 292 297 304 302 297 289 280 269 266 265 273 272 262 254 262 257 267 266 272 273 272 271 266 266 265 266 264 262 260 262
142 134 139 136 147 156 164 195 236 212 237 259 271 274 275 274 280 279 279 279 283 288 289 287 287 288 291 294 295 295 295 295 293 296 296 289 280 292 293 294 295 294 294 293 294 292 292 291 289 282 284 292 294 294 303 307 307 303 304 304 304 304 305 302 299 301 306 301 291 282 282 281 281 279 277 275 272 267 268 269 263 270 269 266 263
151 131 134 136 159 146 157 220 243 234 247 256 273 279 284 283 275 276 272 275 284 292 289 289 295 295 298 303 303 300 298 294 293 296 297 300 304 300 298 300 300 299 297 298 299 298 299 300 301 302 301 301 302 305 306 306 307 309 310 310 310 308 307 307 309 312 310 298 297 294 291 286 281 278 277 277 275 274 270 268 268 261 260 264 264